Time,TemperatureF,DewpointF,PressureIn,WindDirection,WindDirectionDegrees,WindSpeedMPH,WindSpeedGustMPH,Humidity,HourlyPrecipIn,Conditions,Clouds,dailyrainin,SoftwareType,DateUTC
2013-03-25 00:00:00,36.6,32.2,29.64,SE,145,1.0,1.0,84,0.01,,BKN120,0.80,VWS V14.01,2013-03-25 04:00:00,
2013-03-25 00:05:00,36.6,32.2,29.63,SSE,148,0.0,0.0,84,0.01,,BKN120,0.00,VWS V14.01,2013-03-25 04:05:00,
2013-03-25 00:10:00,36.6,32.2,29.63,SSE,148,0.0,0.0,84,0.01,,BKN120,0.00,VWS V14.01,2013-03-25 04:10:00,
2013-03-25 00:15:00,36.6,32.2,29.63,SE,136,0.0,0.0,84,0.02,,BKN120,0.01,VWS V14.01,2013-03-25 04:15:00,
2013-03-25 00:20:00,36.6,32.2,29.63,SE,136,0.0,0.0,84,0.01,,BKN120,0.01,VWS V14.01,2013-03-25 04:20:00,
2013-03-25 00:25:00,36.6,32.2,29.63,SE,136,0.0,0.0,84,0.01,,BKN120,0.01,VWS V14.01,2013-03-25 04:25:00,
2013-03-25 00:30:00,36.6,32.2,29.63,East,96,0.0,0.0,84,0.01,,BKN120,0.01,VWS V14.01,2013-03-25 04:30:00,
2013-03-25 00:35:00,36.6,32.2,29.62,SSE,148,1.0,1.0,84,0.02,,BKN120,0.02,VWS V14.01,2013-03-25 04:35:00,
2013-03-25 00:40:00,36.6,32.2,29.62,SSE,159,0.0,1.0,84,0.02,,BKN120,0.02,VWS V14.01,2013-03-25 04:40:00,
2013-03-25 00:45:00,36.6,32.2,29.63,SE,127,0.0,2.0,84,0.02,,BKN120,0.02,VWS V14.01,2013-03-25 04:45:00,
2013-03-25 00:50:00,36.5,32.1,29.63,SE,145,1.0,1.0,84,0.02,,BKN120,0.02,VWS V14.01,2013-03-25 04:50:00,
2013-03-25 00:55:00,36.5,32.1,29.63,South,176,2.0,2.0,84,0.02,,BKN120,0.02,VWS V14.01,2013-03-25 04:55:00,
2013-03-25 01:00:00,36.3,31.9,29.63,SSE,155,0.0,1.0,84,0.02,,BKN120,0.02,VWS V14.01,2013-03-25 05:00:00,
2013-03-25 01:05:00,36.3,31.9,29.63,SSE,148,1.0,1.0,84,0.02,,BKN120,0.02,VWS V14.01,2013-03-25 05:05:00,
2013-03-25 01:10:00,36.2,31.8,29.62,SE,134,0.0,0.0,84,0.02,,BKN120,0.02,VWS V14.01,2013-03-25 05:10:00,
2013-03-25 01:15:00,36.3,31.9,29.62,SSE,152,1.0,2.0,84,0.01,,BKN120,0.02,VWS V14.01,2013-03-25 05:15:00,
2013-03-25 01:20:00,36.2,31.8,29.62,SE,134,0.0,1.0,84,0.01,,BKN120,0.02,VWS V14.01,2013-03-25 05:20:00,
2013-03-25 01:25:00,36.1,31.7,29.62,SE,134,0.0,0.0,84,0.01,,BKN120,0.02,VWS V14.01,2013-03-25 05:25:00,
2013-03-25 01:30:00,36.1,31.7,29.62,SE,134,0.0,0.0,84,0.01,,BKN120,0.02,VWS V14.01,2013-03-25 05:30:00,
2013-03-25 01:35:00,36.1,31.7,29.62,SE,134,0.0,0.0,84,0.00,,BKN120,0.02,VWS V14.01,2013-03-25 05:35:00,
2013-03-25 01:40:00,36.1,31.7,29.62,SE,134,0.0,0.0,84,0.00,,BKN120,0.02,VWS V14.01,2013-03-25 05:40:00,
2013-03-25 01:45:00,36.0,31.6,29.62,SE,133,0.0,1.0,84,0.00,,BKN120,0.02,VWS V14.01,2013-03-25 05:45:00,
2013-03-25 01:50:00,36.0,31.6,29.61,SSW,207,1.0,1.0,84,0.00,,BKN120,0.02,VWS V14.01,2013-03-25 05:50:00,
2013-03-25 01:55:00,36.0,31.6,29.61,SSW,207,0.0,0.0,84,0.00,,BKN120,0.02,VWS V14.01,2013-03-25 05:55:00,
2013-03-25 02:00:00,36.1,31.7,29.61,SE,145,0.0,0.0,84,0.00,,BKN120,0.02,VWS V14.01,2013-03-25 06:00:00,
2013-03-25 02:05:00,36.1,31.7,29.61,SSE,167,1.0,1.0,84,0.00,,BKN120,0.02,VWS V14.01,2013-03-25 06:05:00,
2013-03-25 02:10:00,36.0,31.6,29.61,SSE,163,0.0,0.0,84,0.00,,BKN120,0.02,VWS V14.01,2013-03-25 06:10:00,
2013-03-25 02:15:00,36.0,31.6,29.62,SSE,163,0.0,0.0,84,0.00,,BKN120,0.02,VWS V14.01,2013-03-25 06:15:00,
2013-03-25 02:20:00,36.0,31.6,29.62,SSE,162,0.0,0.0,84,0.00,,BKN120,0.02,VWS V14.01,2013-03-25 06:20:00,
2013-03-25 02:25:00,36.0,31.6,29.62,ESE,117,0.0,0.0,84,0.00,,BKN120,0.02,VWS V14.01,2013-03-25 06:25:00,
2013-03-25 02:30:00,36.0,31.6,29.62,ESE,117,0.0,0.0,84,0.00,,BKN120,0.02,VWS V14.01,2013-03-25 06:30:00,
2013-03-25 02:35:00,35.9,31.5,29.62,ESE,117,0.0,0.0,84,0.00,,BKN120,0.02,VWS V14.01,2013-03-25 06:35:00,
2013-03-25 02:40:00,36.0,31.6,29.63,ESE,117,0.0,1.0,84,0.00,,BKN120,0.02,VWS V14.01,2013-03-25 06:40:00,
2013-03-25 02:45:00,36.1,31.7,29.63,ESE,117,0.0,0.0,84,0.00,,BKN120,0.02,VWS V14.01,2013-03-25 06:45:00,
2013-03-25 02:50:00,36.0,31.6,29.63,ESE,117,0.0,0.0,84,0.01,,BKN120,0.03,VWS V14.01,2013-03-25 06:50:00,
2013-03-25 02:55:00,35.9,31.5,29.62,ESE,117,0.0,0.0,84,0.02,,BKN120,0.04,VWS V14.01,2013-03-25 06:55:00,
2013-03-25 03:00:00,35.9,31.5,29.62,ESE,117,0.0,0.0,84,0.02,,BKN120,0.04,VWS V14.01,2013-03-25 07:00:00,
2013-03-25 03:05:00,35.8,31.7,29.62,ESE,117,0.0,0.0,85,0.03,,BKN120,0.05,VWS V14.01,2013-03-25 07:05:00,
2013-03-25 03:10:00,35.7,31.6,29.62,ESE,117,0.0,0.0,85,0.03,,BKN120,0.05,VWS V14.01,2013-03-25 07:10:00,
2013-03-25 03:15:00,35.7,31.6,29.62,ESE,117,0.0,0.0,85,0.03,,BKN120,0.05,VWS V14.01,2013-03-25 07:15:00,
2013-03-25 03:20:00,35.7,31.6,29.62,ESE,117,0.0,0.0,85,0.03,,BKN120,0.05,VWS V14.01,2013-03-25 07:20:00,
2013-03-25 03:25:00,35.6,31.2,29.62,ESE,117,0.0,0.0,84,0.03,,BKN120,0.05,VWS V14.01,2013-03-25 07:25:00,
2013-03-25 03:30:00,35.7,31.6,29.62,ESE,117,0.0,0.0,85,0.03,,BKN120,0.05,VWS V14.01,2013-03-25 07:30:00,
2013-03-25 03:35:00,35.7,31.6,29.62,ESE,117,0.0,0.0,85,0.03,,BKN120,0.05,VWS V14.01,2013-03-25 07:35:00,
2013-03-25 03:40:00,35.5,31.5,29.62,ESE,116,0.0,0.0,85,0.03,,BKN120,0.05,VWS V14.01,2013-03-25 07:40:00,
2013-03-25 03:45:00,35.6,31.5,29.61,ESE,117,0.0,0.0,85,0.03,,BKN120,0.05,VWS V14.01,2013-03-25 07:45:00,
2013-03-25 03:50:00,35.6,31.5,29.61,ESE,117,0.0,0.0,85,0.02,,BKN120,0.05,VWS V14.01,2013-03-25 07:50:00,
2013-03-25 03:55:00,35.7,31.6,29.60,ESE,117,0.0,0.0,85,0.01,,BKN120,0.05,VWS V14.01,2013-03-25 07:55:00,
2013-03-25 04:00:00,35.6,31.5,29.61,ESE,117,0.0,0.0,85,0.01,,BKN120,0.05,VWS V14.01,2013-03-25 08:00:00,
2013-03-25 04:06:00,35.6,31.5,29.60,ESE,117,0.0,0.0,85,0.00,,BKN120,0.05,VWS V14.01,2013-03-25 08:06:00,
2013-03-25 04:10:00,35.6,31.5,29.60,ESE,117,0.0,0.0,85,0.00,,BKN120,0.05,VWS V14.01,2013-03-25 08:10:00,
2013-03-25 04:15:00,35.5,31.5,29.60,ESE,117,0.0,1.0,85,0.00,,BKN120,0.05,VWS V14.01,2013-03-25 08:15:00,
2013-03-25 04:20:00,35.5,31.5,29.60,ESE,117,0.0,0.0,85,0.00,,BKN120,0.05,VWS V14.01,2013-03-25 08:20:00,
2013-03-25 04:25:00,35.5,31.5,29.60,ESE,117,0.0,0.0,85,0.00,,BKN120,0.05,VWS V14.01,2013-03-25 08:25:00,
2013-03-25 04:30:00,35.5,31.5,29.60,SE,131,1.0,1.0,85,0.00,,BKN120,0.05,VWS V14.01,2013-03-25 08:30:00,
2013-03-25 04:35:00,35.5,31.5,29.60,SE,140,0.0,0.0,85,0.00,,BKN120,0.05,VWS V14.01,2013-03-25 08:35:00,
2013-03-25 04:40:00,35.6,31.5,29.60,SE,139,0.0,0.0,85,0.00,,BKN120,0.05,VWS V14.01,2013-03-25 08:40:00,
2013-03-25 04:45:00,35.6,31.5,29.60,SE,140,0.0,0.0,85,0.00,,BKN120,0.05,VWS V14.01,2013-03-25 08:45:00,
2013-03-25 04:50:00,35.6,31.5,29.60,SE,140,0.0,0.0,85,0.00,,BKN120,0.05,VWS V14.01,2013-03-25 08:50:00,
2013-03-25 04:56:00,35.6,31.5,29.60,SE,139,0.0,0.0,85,0.00,,BKN120,0.05,VWS V14.01,2013-03-25 08:56:00,
2013-03-25 05:01:00,35.6,31.5,29.60,SE,140,0.0,0.0,85,0.00,,BKN120,0.05,VWS V14.01,2013-03-25 09:01:00,
2013-03-25 05:06:00,35.6,31.5,29.60,SE,139,0.0,0.0,85,0.00,,BKN120,0.05,VWS V14.01,2013-03-25 09:06:00,
2013-03-25 05:11:00,35.7,31.6,29.60,SSE,152,1.0,1.0,85,0.00,,BKN120,0.05,VWS V14.01,2013-03-25 09:11:00,
2013-03-25 05:16:00,35.7,31.6,29.60,SE,141,1.0,1.0,85,0.00,,BKN120,0.05,VWS V14.01,2013-03-25 09:16:00,
2013-03-25 05:21:00,35.7,31.6,29.60,South,169,0.0,0.0,85,0.00,,BKN120,0.05,VWS V14.01,2013-03-25 09:21:00,
2013-03-25 05:26:00,35.7,31.6,29.60,SSE,167,0.0,0.0,85,0.00,,BKN120,0.05,VWS V14.01,2013-03-25 09:26:00,
2013-03-25 05:31:00,35.7,31.6,29.60,SSE,153,1.0,1.0,85,0.00,,BKN120,0.05,VWS V14.01,2013-03-25 09:31:00,
2013-03-25 05:36:00,35.6,31.5,29.60,SSE,150,0.0,0.0,85,0.00,,BKN120,0.05,VWS V14.01,2013-03-25 09:36:00,
2013-03-25 05:41:00,35.6,31.5,29.60,SSW,198,0.0,0.0,85,0.00,,BKN120,0.05,VWS V14.01,2013-03-25 09:41:00,
2013-03-25 05:46:00,35.5,31.5,29.60,SSW,208,1.0,2.0,85,0.00,,BKN120,0.05,VWS V14.01,2013-03-25 09:46:00,
2013-03-25 05:51:00,35.6,31.5,29.61,SSW,208,0.0,0.0,85,0.00,,BKN120,0.05,VWS V14.01,2013-03-25 09:51:00,
2013-03-25 05:56:00,35.6,31.5,29.61,SSW,208,0.0,0.0,85,0.00,,BKN120,0.05,VWS V14.01,2013-03-25 09:56:00,
2013-03-25 06:01:00,35.7,31.6,29.61,South,185,0.0,1.0,85,0.00,,BKN120,0.05,VWS V14.01,2013-03-25 10:01:00,
2013-03-25 06:06:00,35.7,31.6,29.61,SE,135,0.0,0.0,85,0.00,,BKN120,0.05,VWS V14.01,2013-03-25 10:06:00,
2013-03-25 06:11:00,35.6,31.5,29.61,SE,135,0.0,0.0,85,0.00,,BKN120,0.05,VWS V14.01,2013-03-25 10:11:00,
2013-03-25 06:16:00,35.3,31.2,29.61,SE,136,0.0,0.0,85,0.00,,BKN120,0.05,VWS V14.01,2013-03-25 10:16:00,
2013-03-25 06:21:00,35.3,31.2,29.61,ENE,72,0.0,1.0,85,0.00,,BKN120,0.05,VWS V14.01,2013-03-25 10:21:00,
2013-03-25 06:26:00,35.1,31.0,29.62,East,89,0.0,1.0,85,0.00,,BKN120,0.05,VWS V14.01,2013-03-25 10:26:00,
2013-03-25 06:32:00,34.7,30.7,29.62,SSE,168,1.0,1.0,85,0.00,,BKN120,0.05,VWS V14.01,2013-03-25 10:32:00,
2013-03-25 06:37:00,34.3,30.3,29.62,SSE,155,0.0,2.0,85,0.00,,BKN120,0.05,VWS V14.01,2013-03-25 10:37:00,
2013-03-25 06:42:00,34.1,30.1,29.61,WSW,238,1.0,2.0,85,0.00,,BKN120,0.05,VWS V14.01,2013-03-25 10:42:00,
2013-03-25 06:47:00,33.9,29.9,29.62,SE,145,0.0,0.0,85,0.00,,BKN120,0.05,VWS V14.01,2013-03-25 10:47:00,
2013-03-25 06:52:00,33.6,29.6,29.62,SSW,203,0.0,0.0,85,0.00,,BKN120,0.05,VWS V14.01,2013-03-25 10:52:00,
2013-03-25 06:57:00,33.4,29.4,29.62,SSW,211,1.0,1.0,85,0.00,,BKN120,0.05,VWS V14.01,2013-03-25 10:57:00,
2013-03-25 07:02:00,33.4,29.4,29.62,WSW,245,0.0,0.0,85,0.00,,BKN120,0.05,VWS V14.01,2013-03-25 11:02:00,
2013-03-25 07:07:00,33.5,29.5,29.62,SSW,199,0.0,0.0,85,0.00,,BKN120,0.05,VWS V14.01,2013-03-25 11:07:00,
2013-03-25 07:12:00,33.7,29.7,29.63,WSW,238,0.0,1.0,85,0.00,,BKN120,0.05,VWS V14.01,2013-03-25 11:12:00,
2013-03-25 07:17:00,33.9,29.9,29.63,ESE,117,0.0,1.0,85,0.00,,BKN120,0.05,VWS V14.01,2013-03-25 11:17:00,
2013-03-25 07:22:00,34.0,29.7,29.63,SE,127,0.0,1.0,84,0.00,,BKN120,0.05,VWS V14.01,2013-03-25 11:22:00,
2013-03-25 07:27:00,34.3,30.0,29.64,WSW,245,0.0,0.0,84,0.00,,BKN120,0.05,VWS V14.01,2013-03-25 11:27:00,
2013-03-25 07:32:00,34.5,30.2,29.64,SW,226,0.0,0.0,84,0.00,,BKN120,0.05,VWS V14.01,2013-03-25 11:32:00,
2013-03-25 07:37:00,34.9,30.6,29.64,West,275,0.0,0.0,84,0.00,,BKN120,0.05,VWS V14.01,2013-03-25 11:37:00,
2013-03-25 07:42:00,35.3,31.0,29.64,WSW,257,1.0,2.0,84,0.00,,BKN120,0.05,VWS V14.01,2013-03-25 11:42:00,
2013-03-25 07:47:00,35.4,31.1,29.64,WSW,249,1.0,2.0,84,0.00,,BKN120,0.05,VWS V14.01,2013-03-25 11:47:00,
2013-03-25 07:52:00,35.6,31.0,29.65,West,278,3.0,3.0,83,0.00,,BKN120,0.05,VWS V14.01,2013-03-25 11:52:00,
2013-03-25 07:57:00,35.7,31.0,29.65,West,260,3.0,4.0,83,0.00,,BKN120,0.05,VWS V14.01,2013-03-25 11:57:00,
2013-03-25 08:02:00,35.8,31.1,29.65,WSW,248,0.0,0.0,83,0.00,,BKN120,0.05,VWS V14.01,2013-03-25 12:02:00,
2013-03-25 08:07:00,35.7,30.8,29.65,SW,222,1.0,1.0,82,0.00,,BKN120,0.05,VWS V14.01,2013-03-25 12:07:00,
2013-03-25 08:12:00,35.7,30.5,29.65,SSW,192,3.0,3.0,81,0.00,,BKN120,0.05,VWS V14.01,2013-03-25 12:12:00,
2013-03-25 08:17:00,35.7,30.5,29.66,SW,218,2.0,2.0,81,0.00,,BKN120,0.05,VWS V14.01,2013-03-25 12:17:00,
2013-03-25 08:22:00,35.7,30.5,29.66,WSW,254,3.0,3.0,81,0.00,,BKN120,0.05,VWS V14.01,2013-03-25 12:22:00,
2013-03-25 08:27:00,35.7,30.1,29.66,WSW,252,1.0,1.0,80,0.00,,BKN120,0.05,VWS V14.01,2013-03-25 12:27:00,
2013-03-25 08:32:00,35.8,29.9,29.66,West,262,1.0,2.0,79,0.00,,BKN120,0.05,VWS V14.01,2013-03-25 12:32:00,
2013-03-25 08:37:00,36.0,30.1,29.67,West,271,1.0,1.0,79,0.00,,BKN120,0.05,VWS V14.01,2013-03-25 12:37:00,
2013-03-25 08:42:00,36.2,30.0,29.67,West,270,1.0,6.0,78,0.00,,BKN120,0.05,VWS V14.01,2013-03-25 12:42:00,
2013-03-25 08:47:00,36.4,29.6,29.66,WNW,293,3.0,5.0,76,0.00,,BKN120,0.05,VWS V14.01,2013-03-25 12:47:00,
2013-03-25 08:52:00,36.6,29.1,29.66,WSW,256,1.0,1.0,74,0.00,,BKN120,0.05,VWS V14.01,2013-03-25 12:52:00,
2013-03-25 08:57:00,36.7,29.2,29.66,NNW,328,1.0,2.0,74,0.00,,BKN120,0.05,VWS V14.01,2013-03-25 12:57:00,
2013-03-25 09:02:00,36.9,28.7,29.66,West,280,2.0,5.0,72,0.00,,BKN120,0.05,VWS V14.01,2013-03-25 13:02:00,
2013-03-25 09:07:00,37.1,28.2,29.66,West,273,2.0,4.0,70,0.00,,BKN120,0.05,VWS V14.01,2013-03-25 13:07:00,
2013-03-25 09:12:00,37.2,27.6,29.66,WNW,285,6.0,8.0,68,0.00,,BKN120,0.05,VWS V14.01,2013-03-25 13:12:00,
2013-03-25 09:17:00,37.5,28.3,29.66,SE,130,3.0,4.0,69,0.00,,BKN120,0.05,VWS V14.01,2013-03-25 13:17:00,
2013-03-25 09:22:00,37.8,28.9,29.66,West,267,1.0,1.0,70,0.00,,BKN120,0.05,VWS V14.01,2013-03-25 13:22:00,
2013-03-25 09:27:00,38.0,28.4,29.67,SSW,212,6.0,8.0,68,0.00,,BKN120,0.05,VWS V14.01,2013-03-25 13:27:00,
2013-03-25 09:32:00,37.9,27.9,29.67,West,269,3.0,6.0,67,0.00,,BKN120,0.05,VWS V14.01,2013-03-25 13:32:00,
2013-03-25 09:37:00,38.1,28.1,29.67,WNW,284,6.0,8.0,67,0.00,,BKN120,0.05,VWS V14.01,2013-03-25 13:37:00,
2013-03-25 09:42:00,38.1,27.8,29.67,WSW,252,5.0,12.0,66,0.00,,BKN120,0.05,VWS V14.01,2013-03-25 13:42:00,
2013-03-25 09:47:00,38.2,27.5,29.67,West,264,2.0,3.0,65,0.00,,BKN120,0.05,VWS V14.01,2013-03-25 13:47:00,
2013-03-25 09:53:00,38.3,27.2,29.67,WSW,255,3.0,4.0,64,0.00,,BKN120,0.05,VWS V14.01,2013-03-25 13:53:00,
2013-03-25 09:58:00,38.5,27.8,29.67,West,262,4.0,4.0,65,0.00,,BKN120,0.05,VWS V14.01,2013-03-25 13:58:00,
2013-03-25 10:03:00,39.1,28.0,29.68,SSE,156,3.0,6.0,64,0.00,,BKN120,0.05,VWS V14.01,2013-03-25 14:03:00,
2013-03-25 10:08:00,39.1,27.2,29.67,South,187,4.0,6.0,62,0.00,,BKN120,0.05,VWS V14.01,2013-03-25 14:08:00,
2013-03-25 10:13:00,39.1,26.4,29.68,WNW,283,5.0,8.0,60,0.00,,BKN120,0.05,VWS V14.01,2013-03-25 14:13:00,
2013-03-25 10:18:00,38.9,26.2,29.68,West,265,3.0,8.0,60,0.00,,BKN120,0.05,VWS V14.01,2013-03-25 14:18:00,
2013-03-25 10:23:00,39.5,27.6,29.68,SW,221,6.0,9.0,62,0.00,,BKN120,0.05,VWS V14.01,2013-03-25 14:23:00,
2013-03-25 10:28:00,40.0,27.2,29.68,West,259,2.0,7.0,60,0.00,,BKN120,0.05,VWS V14.01,2013-03-25 14:28:00,
2013-03-25 10:33:00,40.8,28.0,29.68,WSW,242,2.0,2.0,60,0.00,,BKN120,0.05,VWS V14.01,2013-03-25 14:33:00,
2013-03-25 10:38:00,40.2,26.2,29.68,WNW,300,5.0,5.0,57,0.00,,BKN120,0.05,VWS V14.01,2013-03-25 14:38:00,
2013-03-25 10:43:00,39.9,25.9,29.69,WNW,302,4.0,4.0,57,0.00,,BKN120,0.05,VWS V14.01,2013-03-25 14:43:00,
2013-03-25 10:48:00,39.4,25.5,29.69,SE,132,1.0,9.0,57,0.00,,BKN120,0.05,VWS V14.01,2013-03-25 14:48:00,
2013-03-25 10:53:00,39.3,25.8,29.69,NW,312,4.0,4.0,58,0.00,,BKN120,0.05,VWS V14.01,2013-03-25 14:53:00,
2013-03-25 10:58:00,39.6,25.6,29.69,WNW,282,5.0,11.0,57,0.00,,BKN120,0.05,VWS V14.01,2013-03-25 14:58:00,
2013-03-25 11:03:00,39.9,25.9,29.69,West,264,5.0,5.0,57,0.00,,BKN120,0.05,VWS V14.01,2013-03-25 15:03:00,
2013-03-25 11:08:00,39.7,24.4,29.69,WNW,290,3.0,5.0,54,0.00,,BKN120,0.05,VWS V14.01,2013-03-25 15:08:00,
2013-03-25 11:13:00,39.7,24.4,29.70,NW,315,7.0,7.0,54,0.00,,BKN120,0.05,VWS V14.01,2013-03-25 15:13:00,
2013-03-25 11:18:00,39.7,24.9,29.70,SSE,162,5.0,9.0,55,0.00,,BKN120,0.05,VWS V14.01,2013-03-25 15:18:00,
2013-03-25 11:23:00,39.5,24.2,29.70,WNW,295,9.0,9.0,54,0.00,,BKN120,0.05,VWS V14.01,2013-03-25 15:23:00,
2013-03-25 11:28:00,39.5,23.8,29.71,NNW,328,4.0,5.0,53,0.00,,BKN120,0.05,VWS V14.01,2013-03-25 15:28:00,
2013-03-25 11:33:00,40.0,25.1,29.70,NE,36,3.0,5.0,55,0.00,,BKN120,0.05,VWS V14.01,2013-03-25 15:33:00,
2013-03-25 11:38:00,40.8,25.5,29.70,WNW,283,6.0,9.0,54,0.00,,BKN120,0.05,VWS V14.01,2013-03-25 15:38:00,
2013-03-25 11:43:00,40.4,23.2,29.71,West,276,3.0,5.0,50,0.00,,BKN120,0.05,VWS V14.01,2013-03-25 15:43:00,
2013-03-25 11:48:00,40.4,25.1,29.71,SE,145,5.0,5.0,54,0.00,,BKN120,0.05,VWS V14.01,2013-03-25 15:48:00,
2013-03-25 11:53:00,40.4,24.6,29.71,WSW,242,1.0,2.0,53,0.00,,BKN120,0.05,VWS V14.01,2013-03-25 15:53:00,
2013-03-25 11:58:00,40.7,24.9,29.71,WSW,239,2.0,2.0,53,0.00,,BKN120,0.05,VWS V14.01,2013-03-25 15:58:00,
2013-03-25 12:03:00,41.1,25.7,29.72,WSW,257,2.0,2.0,54,0.00,,BKN120,0.05,VWS V14.01,2013-03-25 16:03:00,
2013-03-25 12:08:00,41.5,25.2,29.72,West,271,1.0,2.0,52,0.00,,BKN120,0.05,VWS V14.01,2013-03-25 16:08:00,
2013-03-25 12:13:00,42.3,25.9,29.72,NW,322,3.0,4.0,52,0.00,,BKN120,0.05,VWS V14.01,2013-03-25 16:13:00,
2013-03-25 12:18:00,42.7,25.4,29.72,North,349,3.0,6.0,50,0.00,,BKN120,0.05,VWS V14.01,2013-03-25 16:18:00,
2013-03-25 12:23:00,42.8,25.5,29.73,SSW,213,4.0,4.0,50,0.00,,BKN120,0.05,VWS V14.01,2013-03-25 16:23:00,
2013-03-25 12:28:00,42.4,24.6,29.73,NW,321,4.0,5.0,49,0.00,,BKN120,0.05,VWS V14.01,2013-03-25 16:28:00,
2013-03-25 12:33:00,41.6,23.9,29.73,WNW,293,2.0,2.0,49,0.00,,BKN120,0.05,VWS V14.01,2013-03-25 16:33:00,
2013-03-25 12:38:00,40.8,23.6,29.73,West,266,4.0,5.0,50,0.00,,BKN120,0.05,VWS V14.01,2013-03-25 16:38:00,
2013-03-25 12:43:00,40.8,23.6,29.73,WNW,294,5.0,5.0,50,0.00,,BKN120,0.05,VWS V14.01,2013-03-25 16:43:00,
2013-03-25 12:48:00,41.3,25.0,29.74,SW,231,3.0,6.0,52,0.00,,BKN120,0.05,VWS V14.01,2013-03-25 16:48:00,
2013-03-25 12:53:00,42.0,26.1,29.73,West,263,2.0,4.0,53,0.00,,BKN120,0.05,VWS V14.01,2013-03-25 16:53:00,
2013-03-25 12:58:00,42.0,25.2,29.73,SW,229,6.0,8.0,51,0.00,,BKN120,0.05,VWS V14.01,2013-03-25 16:58:00,
2013-03-25 13:03:00,41.9,25.6,29.73,SSE,153,6.0,6.0,52,0.00,,BKN120,0.05,VWS V14.01,2013-03-25 17:03:00,
2013-03-25 13:08:00,43.2,28.1,29.74,SW,226,5.0,8.0,55,0.00,,BKN120,0.05,VWS V14.01,2013-03-25 17:08:00,
2013-03-25 13:13:00,42.7,26.8,29.73,SSW,211,8.0,9.0,53,0.00,,BKN120,0.05,VWS V14.01,2013-03-25 17:13:00,
2013-03-25 13:18:00,42.9,26.5,29.73,WSW,253,3.0,5.0,52,0.00,,BKN120,0.05,VWS V14.01,2013-03-25 17:18:00,
2013-03-25 13:23:00,43.0,26.1,29.73,SW,215,9.0,11.0,51,0.00,,BKN120,0.05,VWS V14.01,2013-03-25 17:23:00,
2013-03-25 13:28:00,42.3,24.5,29.74,WNW,285,2.0,6.0,49,0.00,,BKN120,0.05,VWS V14.01,2013-03-25 17:28:00,
2013-03-25 13:33:00,41.8,24.5,29.74,West,269,2.0,4.0,50,0.00,,BKN120,0.05,VWS V14.01,2013-03-25 17:33:00,
2013-03-25 13:38:00,41.4,24.6,29.74,NW,305,1.0,4.0,51,0.00,,BKN120,0.05,VWS V14.01,2013-03-25 17:38:00,
2013-03-25 13:43:00,41.4,25.1,29.74,WNW,282,3.0,5.0,52,0.00,,BKN120,0.05,VWS V14.01,2013-03-25 17:43:00,
2013-03-25 13:48:00,42.0,25.7,29.73,West,273,3.0,4.0,52,0.00,,BKN120,0.05,VWS V14.01,2013-03-25 17:48:00,
2013-03-25 13:53:00,43.3,26.4,29.73,South,186,3.0,6.0,51,0.00,,BKN120,0.05,VWS V14.01,2013-03-25 17:53:00,
2013-03-25 13:58:00,43.3,25.4,29.73,SSW,207,9.0,10.0,49,0.00,,BKN120,0.05,VWS V14.01,2013-03-25 17:58:00,
2013-03-25 14:03:00,43.3,24.4,29.73,SW,226,5.0,13.0,47,0.00,,BKN120,0.05,VWS V14.01,2013-03-25 18:03:00,
2013-03-25 14:08:00,42.2,23.4,29.73,West,270,4.0,9.0,47,0.00,,BKN120,0.05,VWS V14.01,2013-03-25 18:08:00,
2013-03-25 14:13:00,41.6,24.4,29.73,SSW,208,3.0,6.0,50,0.00,,BKN120,0.05,VWS V14.01,2013-03-25 18:13:00,
2013-03-25 14:18:00,42.2,24.4,29.73,WNW,293,3.0,3.0,49,0.00,,BKN120,0.05,VWS V14.01,2013-03-25 18:18:00,
2013-03-25 14:23:00,42.8,25.5,29.72,South,191,2.0,3.0,50,0.00,,BKN120,0.05,VWS V14.01,2013-03-25 18:23:00,
2013-03-25 14:28:00,43.1,24.8,29.72,SW,215,3.0,9.0,48,0.00,,BKN120,0.05,VWS V14.01,2013-03-25 18:28:00,
2013-03-25 14:33:00,43.2,24.9,29.73,SSE,156,4.0,11.0,48,0.00,,BKN120,0.05,VWS V14.01,2013-03-25 18:33:00,
2013-03-25 14:38:00,43.7,25.3,29.73,West,263,2.0,4.0,48,0.00,,BKN120,0.05,VWS V14.01,2013-03-25 18:38:00,
2013-03-25 14:43:00,42.6,23.3,29.73,WNW,290,7.0,10.0,46,0.00,,BKN120,0.05,VWS V14.01,2013-03-25 18:43:00,
2013-03-25 14:48:00,42.9,24.6,29.73,WNW,283,5.0,9.0,48,0.00,,BKN120,0.05,VWS V14.01,2013-03-25 18:48:00,
2013-03-25 14:53:00,43.2,24.9,29.73,WSW,258,3.0,8.0,48,0.00,,BKN120,0.05,VWS V14.01,2013-03-25 18:53:00,
2013-03-25 14:58:00,42.9,24.1,29.73,NW,319,3.0,6.0,47,0.00,,BKN120,0.05,VWS V14.01,2013-03-25 18:58:00,
2013-03-25 15:03:00,43.0,24.2,29.72,WNW,291,3.0,7.0,47,0.00,,BKN120,0.05,VWS V14.01,2013-03-25 19:03:00,
2013-03-25 15:08:00,43.0,24.7,29.73,NNW,338,6.0,7.0,48,0.00,,BKN120,0.05,VWS V14.01,2013-03-25 19:08:00,
2013-03-25 15:13:00,42.5,25.2,29.73,SW,225,12.0,13.0,50,0.00,,BKN120,0.05,VWS V14.01,2013-03-25 19:13:00,
2013-03-25 15:18:00,42.0,25.7,29.73,WSW,238,9.0,12.0,52,0.00,,BKN120,0.05,VWS V14.01,2013-03-25 19:18:00,
2013-03-25 15:23:00,42.8,25.9,29.72,NW,307,2.0,4.0,51,0.00,,BKN120,0.05,VWS V14.01,2013-03-25 19:23:00,
2013-03-25 15:28:00,43.1,25.7,29.73,WNW,285,6.0,6.0,50,0.00,,BKN120,0.05,VWS V14.01,2013-03-25 19:28:00,
2013-03-25 15:33:00,43.0,26.1,29.73,NNW,338,8.0,8.0,51,0.00,,BKN120,0.05,VWS V14.01,2013-03-25 19:33:00,
2013-03-25 15:38:00,43.7,26.3,29.73,South,175,3.0,10.0,50,0.00,,BKN120,0.05,VWS V14.01,2013-03-25 19:38:00,
2013-03-25 15:43:00,43.8,25.9,29.72,SW,229,7.0,13.0,49,0.00,,BKN120,0.05,VWS V14.01,2013-03-25 19:43:00,
2013-03-25 15:48:00,43.8,25.9,29.73,NW,325,2.0,9.0,49,0.00,,BKN120,0.05,VWS V14.01,2013-03-25 19:48:00,
2013-03-25 15:53:00,43.9,26.5,29.73,NW,317,3.0,6.0,50,0.00,,BKN120,0.05,VWS V14.01,2013-03-25 19:53:00,
2013-03-25 15:58:00,43.6,26.2,29.73,NNW,330,4.0,4.0,50,0.00,,BKN120,0.05,VWS V14.01,2013-03-25 19:58:00,
2013-03-25 16:03:00,43.0,24.7,29.73,South,189,3.0,6.0,48,0.00,,BKN120,0.05,VWS V14.01,2013-03-25 20:03:00,
2013-03-25 16:08:00,43.3,24.9,29.73,SSE,167,10.0,13.0,48,0.00,,BKN120,0.05,VWS V14.01,2013-03-25 20:08:00,
2013-03-25 16:13:00,43.7,25.3,29.73,South,190,5.0,10.0,48,0.00,,BKN120,0.05,VWS V14.01,2013-03-25 20:13:00,
2013-03-25 16:18:00,43.5,25.6,29.73,SSW,212,9.0,11.0,49,0.00,,BKN120,0.05,VWS V14.01,2013-03-25 20:18:00,
2013-03-25 16:23:00,43.5,24.6,29.73,South,171,7.0,10.0,47,0.00,,BKN120,0.05,VWS V14.01,2013-03-25 20:23:00,
2013-03-25 16:28:00,42.4,24.1,29.74,SSW,208,6.0,6.0,48,0.00,,BKN120,0.05,VWS V14.01,2013-03-25 20:28:00,
2013-03-25 16:33:00,42.0,24.7,29.74,WNW,293,5.0,9.0,50,0.00,,BKN120,0.05,VWS V14.01,2013-03-25 20:33:00,
2013-03-25 16:38:00,41.9,25.6,29.74,West,271,6.0,8.0,52,0.00,,BKN120,0.05,VWS V14.01,2013-03-25 20:38:00,
2013-03-25 16:43:00,42.1,26.7,29.74,West,262,3.0,7.0,54,0.00,,BKN120,0.05,VWS V14.01,2013-03-25 20:43:00,
2013-03-25 16:48:00,42.0,25.2,29.74,NW,322,3.0,4.0,51,0.00,,BKN120,0.05,VWS V14.01,2013-03-25 20:48:00,
2013-03-25 16:54:00,41.8,25.0,29.74,WNW,302,1.0,4.0,51,0.00,,BKN120,0.05,VWS V14.01,2013-03-25 20:54:00,
2013-03-25 16:59:00,41.4,25.1,29.75,WNW,293,3.0,4.0,52,0.00,,BKN120,0.05,VWS V14.01,2013-03-25 20:59:00,
2013-03-25 17:04:00,41.1,24.4,29.75,WSW,252,6.0,6.0,51,0.00,,BKN120,0.05,VWS V14.01,2013-03-25 21:04:00,
2013-03-25 17:09:00,41.1,24.8,29.75,WSW,245,3.0,3.0,52,0.00,,BKN120,0.05,VWS V14.01,2013-03-25 21:09:00,
2013-03-25 17:14:00,41.6,25.8,29.76,WNW,288,2.0,5.0,53,0.00,,BKN120,0.05,VWS V14.01,2013-03-25 21:14:00,
2013-03-25 17:19:00,42.0,25.7,29.76,West,280,1.0,6.0,52,0.00,,BKN120,0.05,VWS V14.01,2013-03-25 21:19:00,
2013-03-25 17:24:00,41.9,26.0,29.76,WNW,283,5.0,7.0,53,0.00,,BKN120,0.05,VWS V14.01,2013-03-25 21:24:00,
2013-03-25 17:29:00,41.7,25.9,29.76,WNW,295,5.0,5.0,53,0.00,,BKN120,0.05,VWS V14.01,2013-03-25 21:29:00,
2013-03-25 17:34:00,41.3,25.9,29.76,NW,315,2.0,11.0,54,0.00,,BKN120,0.05,VWS V14.01,2013-03-25 21:34:00,
2013-03-25 17:39:00,40.4,25.1,29.76,NW,314,2.0,7.0,54,0.00,,BKN120,0.05,VWS V14.01,2013-03-25 21:39:00,
2013-03-25 17:44:00,40.1,24.8,29.77,NW,316,1.0,3.0,54,0.00,,BKN120,0.05,VWS V14.01,2013-03-25 21:44:00,
2013-03-25 17:49:00,39.9,25.1,29.77,WNW,288,10.0,10.0,55,0.00,,BKN120,0.05,VWS V14.01,2013-03-25 21:49:00,
2013-03-25 17:54:00,39.9,25.1,29.77,West,278,3.0,4.0,55,0.00,,BKN120,0.05,VWS V14.01,2013-03-25 21:54:00,
2013-03-25 17:59:00,39.9,25.1,29.77,West,259,3.0,3.0,55,0.00,,BKN120,0.05,VWS V14.01,2013-03-25 21:59:00,
2013-03-25 18:04:00,39.7,24.9,29.78,NW,305,0.0,7.0,55,0.00,,BKN120,0.05,VWS V14.01,2013-03-25 22:04:00,
2013-03-25 18:09:00,39.7,25.3,29.78,WNW,283,3.0,4.0,56,0.00,,BKN120,0.05,VWS V14.01,2013-03-25 22:09:00,
2013-03-25 18:14:00,39.6,25.2,29.78,NW,317,5.0,5.0,56,0.00,,BKN120,0.05,VWS V14.01,2013-03-25 22:14:00,
2013-03-25 18:19:00,39.5,24.7,29.79,ENE,70,1.0,1.0,55,0.00,,BKN120,0.05,VWS V14.01,2013-03-25 22:19:00,
2013-03-25 18:24:00,39.6,24.8,29.79,West,266,2.0,2.0,55,0.00,,BKN120,0.05,VWS V14.01,2013-03-25 22:24:00,
2013-03-25 18:29:00,39.4,25.0,29.80,WNW,295,4.0,8.0,56,0.00,,BKN120,0.05,VWS V14.01,2013-03-25 22:29:00,
2013-03-25 18:34:00,39.3,25.8,29.80,WNW,282,3.0,5.0,58,0.00,,BKN120,0.05,VWS V14.01,2013-03-25 22:34:00,
2013-03-25 18:39:00,39.4,26.3,29.80,SSE,160,1.0,3.0,59,0.00,,BKN120,0.05,VWS V14.01,2013-03-25 22:39:00,
2013-03-25 18:44:00,39.3,26.2,29.80,WSW,240,2.0,7.0,59,0.00,,BKN120,0.05,VWS V14.01,2013-03-25 22:44:00,
2013-03-25 18:49:00,39.0,26.3,29.81,West,264,2.0,6.0,60,0.00,,BKN120,0.05,VWS V14.01,2013-03-25 22:49:00,
2013-03-25 18:54:00,38.7,26.0,29.81,NW,307,1.0,1.0,60,0.00,,BKN120,0.05,VWS V14.01,2013-03-25 22:54:00,
2013-03-25 18:59:00,38.6,25.9,29.82,NW,304,1.0,1.0,60,0.00,,BKN120,0.05,VWS V14.01,2013-03-25 22:59:00,
2013-03-25 19:04:00,38.6,25.5,29.83,SSW,205,0.0,0.0,59,0.00,,BKN120,0.05,VWS V14.01,2013-03-25 23:04:00,
2013-03-25 19:09:00,38.6,24.7,29.83,WSW,255,2.0,2.0,57,0.00,,BKN120,0.05,VWS V14.01,2013-03-25 23:09:00,
2013-03-25 19:14:00,38.5,25.0,29.83,WNW,295,0.0,0.0,58,0.00,,BKN120,0.05,VWS V14.01,2013-03-25 23:14:00,
2013-03-25 19:19:00,38.3,26.4,29.84,WNW,282,3.0,3.0,62,0.00,,BKN120,0.05,VWS V14.01,2013-03-25 23:19:00,
2013-03-25 19:24:00,37.8,26.7,29.84,NW,312,2.0,2.0,64,0.00,,BKN120,0.05,VWS V14.01,2013-03-25 23:24:00,
2013-03-25 19:29:00,37.3,27.4,29.84,WNW,288,2.0,3.0,67,0.00,,BKN120,0.05,VWS V14.01,2013-03-25 23:29:00,
2013-03-25 19:34:00,36.9,27.3,29.84,WNW,285,3.0,3.0,68,0.00,,BKN120,0.05,VWS V14.01,2013-03-25 23:34:00,
2013-03-25 19:39:00,36.6,27.8,29.84,NW,307,2.0,2.0,70,0.00,,BKN120,0.05,VWS V14.01,2013-03-25 23:39:00,
2013-03-25 19:44:00,36.1,27.6,29.84,WSW,255,2.0,3.0,71,0.00,,BKN120,0.05,VWS V14.01,2013-03-25 23:44:00,
2013-03-25 19:49:00,35.7,27.6,29.85,NNW,345,1.0,1.0,72,0.00,,BKN120,0.05,VWS V14.01,2013-03-25 23:49:00,
2013-03-25 19:54:00,35.4,27.6,29.85,WSW,250,0.0,0.0,73,0.00,,BKN120,0.05,VWS V14.01,2013-03-25 23:54:00,
2013-03-25 19:59:00,35.1,27.7,29.86,NNE,18,0.0,1.0,74,0.00,,BKN120,0.05,VWS V14.01,2013-03-25 23:59:00,
2013-03-25 20:04:00,34.7,27.6,29.86,WNW,296,0.0,0.0,75,0.00,,BKN120,0.05,VWS V14.01,2013-03-26 00:04:00,
2013-03-25 20:09:00,34.3,27.2,29.86,North,4,0.0,0.0,75,0.00,,BKN120,0.05,VWS V14.01,2013-03-26 00:09:00,
2013-03-25 20:14:00,33.9,27.1,29.86,North,4,0.0,0.0,76,0.00,,BKN120,0.05,VWS V14.01,2013-03-26 00:14:00,
2013-03-25 20:19:00,33.5,27.1,29.86,North,3,0.0,0.0,77,0.00,,BKN120,0.05,VWS V14.01,2013-03-26 00:19:00,
2013-03-25 20:24:00,33.2,26.8,29.86,North,4,0.0,0.0,77,0.00,,BKN120,0.05,VWS V14.01,2013-03-26 00:24:00,
2013-03-25 20:29:00,33.2,27.1,29.86,North,3,0.0,0.0,78,0.00,,BKN120,0.05,VWS V14.01,2013-03-26 00:29:00,
2013-03-25 20:34:00,33.2,27.4,29.87,North,3,0.0,0.0,79,0.00,,BKN120,0.05,VWS V14.01,2013-03-26 00:34:00,
2013-03-25 20:39:00,33.2,27.4,29.87,North,3,0.0,0.0,79,0.00,,BKN120,0.05,VWS V14.01,2013-03-26 00:39:00,
2013-03-25 20:44:00,33.3,27.5,29.87,NNE,18,0.0,0.0,79,0.00,,BKN120,0.05,VWS V14.01,2013-03-26 00:44:00,
2013-03-25 20:49:00,33.3,27.5,29.87,WNW,300,0.0,0.0,79,0.00,,BKN120,0.05,VWS V14.01,2013-03-26 00:49:00,
2013-03-25 20:54:00,33.3,27.2,29.88,North,356,1.0,1.0,78,0.00,,BKN120,0.05,VWS V14.01,2013-03-26 00:54:00,
2013-03-25 20:59:00,33.2,27.1,29.88,SSW,212,1.0,2.0,78,0.00,,BKN120,0.05,VWS V14.01,2013-03-26 00:59:00,
2013-03-25 21:04:00,33.7,27.3,29.88,WSW,248,1.0,1.0,77,0.00,,BKN120,0.05,VWS V14.01,2013-03-26 01:04:00,
2013-03-25 21:09:00,34.2,27.4,29.88,NW,316,0.0,2.0,76,0.00,,BKN120,0.05,VWS V14.01,2013-03-26 01:09:00,
2013-03-25 21:14:00,34.7,27.3,29.89,SSW,200,1.0,3.0,74,0.00,,BKN120,0.05,VWS V14.01,2013-03-26 01:14:00,
2013-03-25 21:19:00,34.9,27.1,29.89,WSW,239,3.0,4.0,73,0.00,,BKN120,0.05,VWS V14.01,2013-03-26 01:19:00,
2013-03-25 21:24:00,35.0,27.2,29.89,NW,308,1.0,1.0,73,0.00,,BKN120,0.05,VWS V14.01,2013-03-26 01:24:00,
2013-03-25 21:29:00,35.0,27.2,29.89,WNW,297,1.0,2.0,73,0.00,,BKN120,0.05,VWS V14.01,2013-03-26 01:29:00,
2013-03-25 21:34:00,35.0,26.9,29.89,WNW,299,2.0,3.0,72,0.00,,BKN120,0.05,VWS V14.01,2013-03-26 01:34:00,
2013-03-25 21:39:00,35.0,26.9,29.90,SW,232,1.0,2.0,72,0.00,,BKN120,0.05,VWS V14.01,2013-03-26 01:39:00,
2013-03-25 21:44:00,34.9,26.5,29.89,SW,221,2.0,3.0,71,0.00,,BKN120,0.05,VWS V14.01,2013-03-26 01:44:00,
2013-03-25 21:50:00,34.9,26.5,29.90,West,263,2.0,10.0,71,0.00,,BKN120,0.05,VWS V14.01,2013-03-26 01:50:00,
2013-03-25 21:55:00,35.1,26.0,29.90,WNW,292,1.0,4.0,69,0.00,,BKN120,0.05,VWS V14.01,2013-03-26 01:55:00,
2013-03-25 22:00:00,35.2,25.7,29.90,WSW,255,1.0,2.0,68,0.00,,BKN120,0.05,VWS V14.01,2013-03-26 02:00:00,
2013-03-25 22:05:00,35.2,25.4,29.90,North,356,2.0,3.0,67,0.00,,BKN120,0.05,VWS V14.01,2013-03-26 02:05:00,
2013-03-25 22:10:00,35.2,25.0,29.90,West,278,1.0,3.0,66,0.00,,BKN120,0.05,VWS V14.01,2013-03-26 02:10:00,
2013-03-25 22:15:00,35.3,24.7,29.90,South,179,2.0,4.0,65,0.00,,BKN120,0.05,VWS V14.01,2013-03-26 02:15:00,
2013-03-25 22:20:00,35.2,24.6,29.90,West,260,1.0,2.0,65,0.00,,BKN120,0.05,VWS V14.01,2013-03-26 02:20:00,
2013-03-25 22:25:00,35.2,24.3,29.90,WNW,295,4.0,4.0,64,0.00,,BKN120,0.05,VWS V14.01,2013-03-26 02:25:00,
2013-03-25 22:30:00,35.2,24.3,29.90,West,264,3.0,7.0,64,0.00,,BKN120,0.05,VWS V14.01,2013-03-26 02:30:00,
2013-03-25 22:35:00,35.3,24.0,29.90,WSW,240,1.0,4.0,63,0.00,,BKN120,0.05,VWS V14.01,2013-03-26 02:35:00,
2013-03-25 22:40:00,35.3,24.0,29.91,NW,307,1.0,4.0,63,0.00,,BKN120,0.05,VWS V14.01,2013-03-26 02:40:00,
2013-03-25 22:45:00,35.1,24.2,29.91,West,278,1.0,4.0,64,0.00,,BKN120,0.05,VWS V14.01,2013-03-26 02:45:00,
2013-03-25 22:50:00,35.1,24.2,29.92,South,181,4.0,6.0,64,0.00,,BKN120,0.05,VWS V14.01,2013-03-26 02:50:00,
2013-03-25 22:55:00,35.2,24.3,29.92,SSW,198,1.0,4.0,64,0.00,,BKN120,0.05,VWS V14.01,2013-03-26 02:55:00,
2013-03-25 23:00:00,35.2,24.3,29.92,SW,235,2.0,7.0,64,0.00,,BKN120,0.05,VWS V14.01,2013-03-26 03:00:00,
2013-03-25 23:05:00,35.1,24.2,29.92,WSW,246,1.0,2.0,64,0.00,,BKN120,0.05,VWS V14.01,2013-03-26 03:05:00,
2013-03-25 23:10:00,35.0,24.4,29.92,WNW,287,2.0,3.0,65,0.00,,BKN120,0.05,VWS V14.01,2013-03-26 03:10:00,
2013-03-25 23:15:00,35.0,24.4,29.92,SSW,201,4.0,4.0,65,0.00,,BKN120,0.05,VWS V14.01,2013-03-26 03:15:00,
2013-03-25 23:20:00,35.0,24.4,29.92,WSW,243,2.0,2.0,65,0.00,,BKN120,0.05,VWS V14.01,2013-03-26 03:20:00,
2013-03-25 23:25:00,34.8,24.2,29.92,SW,225,3.0,4.0,65,0.00,,BKN120,0.05,VWS V14.01,2013-03-26 03:25:00,
2013-03-25 23:30:00,34.8,24.2,29.92,WNW,297,1.0,2.0,65,0.00,,BKN120,0.05,VWS V14.01,2013-03-26 03:30:00,
2013-03-25 23:35:00,34.8,23.9,29.93,West,264,4.0,4.0,64,0.00,,BKN120,0.05,VWS V14.01,2013-03-26 03:35:00,
2013-03-25 23:40:00,34.9,24.0,29.92,WNW,298,5.0,6.0,64,0.00,,BKN120,0.05,VWS V14.01,2013-03-26 03:40:00,
2013-03-25 23:45:00,35.0,24.1,29.92,SE,143,2.0,2.0,64,0.00,,BKN120,0.05,VWS V14.01,2013-03-26 03:45:00,
2013-03-25 23:50:00,35.0,24.1,29.92,SSW,201,0.0,0.0,64,0.00,,BKN120,0.05,VWS V14.01,2013-03-26 03:50:00,
2013-03-25 23:55:00,34.9,24.0,29.92,West,271,0.0,2.0,64,0.00,,BKN120,0.05,VWS V14.01,2013-03-26 03:55:00,